• Join FlightAware (Why Join?)
  • Login
  • US Flag 
02:10AM EDT


 

Airport Tracker/Info


-or-


 

Live Flight TrackerFlight Track Log ✈ DAL6241 ✈ 16-Jun-2014 ✈ KCVG - KLGA

Flight Track Log - Related Links

Times and Time Zones

All times are in EDT time to prevent confusion due to time zone crossing. See the DAL6241 flight status page for this flight to view local times or setup timezone preferences in your user account.

Time Position Orientation Groundspeed Altitude Reporting Facility
EDT Latitude Longitude Course Direction KTS MPH feet Rate Location/Type
04:16PM 39.0500 -84.6833 270° West 148 170 1,300  Level Cincinnati TRACON
04:17PM 39.0500 -84.7667 270° West 213 245 3,800 1,980 Climbing Cincinnati TRACON
04:18PM 39.0500 -84.8500 270° West 239 275 5,900 2,280 Climbing Cincinnati TRACON
04:19PM 39.0833 -84.9000 311° West 268 308 7,700 2,040 Climbing Cincinnati TRACON
04:20PM 39.1806 -84.8767 11° North 285 328 10,400 1,680 Climbing Indianapolis Center
04:21PM 39.2533 -84.8011 39° Northeast 342 394 11,800 1,560 Climbing Indianapolis Center
04:22PM 39.3247 -84.7064 46° Northeast 360 414 13,700 2,100 Climbing Indianapolis Center
04:24PM 39.4128 -84.5897 46° Northeast 374 430 16,200 1,920 Climbing Indianapolis Center
04:25PM 39.4875 -84.4919 45° Northeast 377 434 17,800 1,500 Climbing Indianapolis Center
04:26PM 39.5639 -84.3925 45° Northeast 384 442 19,400 1,440 Climbing Indianapolis Center
04:27PM 39.6533 -84.3031 38° Northeast 395 455 20,800 1,380 Climbing Indianapolis Center
04:28PM 39.7442 -84.2106 38° Northeast 410 472 22,300 1,380 Climbing Indianapolis Center
04:29PM 39.8367 -84.1147 38° Northeast 417 480 23,700 1,500 Climbing Indianapolis Center
04:30PM 39.9406 -83.9867 43° Northeast 424 488 25,400 1,440 Climbing Indianapolis Center
04:31PM 40.0275 -83.8778 44° Northeast 424 488 26,700 1,140 Climbing Indianapolis Center
04:32PM 40.1156 -83.7678 44° Northeast 429 494 27,800 960 Climbing Indianapolis Center
04:33PM 40.2058 -83.6550 44° Northeast 436 502 28,800 960 Climbing Indianapolis Center
04:34PM 40.2936 -83.5419 44° Northeast 442 509 29,800 900 Climbing Indianapolis Center
04:35PM 40.3850 -83.4275 44° Northeast 447 514 30,700 840 Climbing Indianapolis Center
04:36PM 40.4747 -83.3128 44° Northeast 448 516 31,600 840 Climbing Indianapolis Center
04:37PM 40.5844 -83.1717 44° Northeast 454 522 32,500 720 Climbing Indianapolis Center
04:38PM 40.6781 -83.0536 44° Northeast 457 526 33,200 660 Climbing Indianapolis Center
04:39PM 40.7714 -82.9331 44° Northeast 460 529 33,900 600 Climbing Indianapolis Center
04:40PM 40.8647 -82.8106 45° Northeast 465 535 34,500 720 Climbing Indianapolis Center
04:41PM 40.9744 -82.6683 44° Northeast 468 539 35,500 780 Climbing Cleveland Center
04:42PM 41.0669 -82.5464 45° Northeast 467 537 36,300 720 Climbing Cleveland Center
04:43PM 41.1597 -82.4247 45° Northeast 467 537 37,000 660 Climbing Cleveland Center
04:44PM 41.2506 -82.3069 44° Northeast 455 524 37,700 480 Climbing Cleveland Center
04:45PM 41.3364 -82.1825 47° Northeast 454 522 38,100 240 Climbing Cleveland Center
04:46PM 41.3828 -82.0094 70° East 459 528 38,300 240 Climbing Cleveland Center
04:47PM 41.4097 -81.8531 77° East 459 528 38,600 240 Climbing Cleveland Center
04:48PM 41.4383 -81.6767 78° East 468 539 38,900 180 Climbing Cleveland Center
04:49PM 41.4661 -81.5000 78° East 470 541 39,000  Climbing Cleveland Center
04:52PM 41.5122 -81.1181 81° East 478 550 39,000  Level Cleveland Center
04:53PM 41.5042 -80.9369 93° East 480 552 39,000  Level Cleveland Center
04:54PM 41.5131 -80.7528 86° East 490 564 39,000  Level Cleveland Center
04:55PM 41.5222 -80.5706 86° East 491 565 39,000  Level Cleveland Center
04:56PM 41.5414 -80.3894 82° East 490 564 39,000  Level Cleveland Center
04:57PM 41.5600 -80.2164 82° East 490 564 39,000  Level Cleveland Center
04:58PM 41.5800 -80.0344 82° East 491 565 39,000  Level Cleveland Center
04:59PM 41.6086 -79.8214 80° East 489 563 39,000  Level Cleveland Center
05:00PM 41.6286 -79.6467 81° East 486 559 39,000  Level Cleveland Center
05:01PM 41.6400 -79.4694 85° East 484 557 39,000  Level Cleveland Center
05:02PM 41.6378 -79.2942 91° East 479 551 39,000  Level Cleveland Center
05:03PM 41.6281 -79.1208 94° East 469 540 39,000 -420 Level Cleveland Center
05:04PM 41.6100 -78.9458 98° East 476 548 38,200 -1,020 Descending Cleveland Center
05:05PM 41.5767 -78.7339 102° East 484 557 37,000 -1,140 Descending Cleveland Center
05:06PM 41.5231 -78.5756 114° Southeast 473 544 35,900 -1,020 Descending Cleveland Center
05:07PM 41.4392 -78.4525 132° Southeast 456 525 35,000 -540 Descending Cleveland Center
05:08PM 41.3475 -78.3267 134° Southeast 457 526 34,800 -540 Descending Cleveland Center
05:09PM 41.2589 -78.1997 133° Southeast 469 540 33,900 -900 Descending Cleveland Center
05:10PM 41.2025 -78.0372 115° Southeast 483 556 33,000 -480 Descending Cleveland Center
05:11PM 41.1803 -77.8619 100° East 486 559 33,000 -600 Level Cleveland Center
05:12PM 41.1522 -77.6475 100° East 490 564 31,800 -1,500 Descending Cleveland Center
05:13PM 41.1300 -77.4694 99° East 491 565 30,000 -1,800 Descending Cleveland Center
05:14PM 41.1081 -77.2947 99° East 489 563 28,200 -1,860 Descending Cleveland Center
05:15PM 41.0911 -77.1969 103° East 482 555 27,200 -1,920 Descending New York Center
05:16PM 41.0692 -77.0269 100° East 476 548 25,400 -1,740 Descending New York Center
05:17PM 41.0467 -76.8569 100° East 469 540 23,800 -1,620 Descending New York Center
05:18PM 41.0236 -76.6925 100° East 469 540 22,200 -1,620 Descending New York Center
05:19PM 40.9900 -76.5331 106° East 463 533 20,600 -1,620 Descending New York Center
05:20PM 40.9553 -76.3844 107° East 439 505 19,000 -1,500 Descending New York Center
05:21PM 40.9219 -76.2497 108° East 424 488 17,600 -1,440 Descending New York Center
05:22PM 40.8869 -76.1042 108° East 419 482 16,200 -1,500 Descending New York Center
05:23PM 40.8483 -75.9422 107° East 413 475 14,600 -1,500 Descending New York Center
05:24PM 40.8147 -75.8053 108° East 403 464 13,200 -840 Descending New York Center
05:25PM 40.7808 -75.6683 108° East 393 452 13,000 -120 Descending New York Center
05:26PM 40.7467 -75.5344 109° East 388 447 13,000 -420 Level New York Center
05:27PM 40.7183 -75.4119 107° East 388 447 12,200 -900 Descending New York Center
05:28PM 40.6903 -75.2733 105° East 388 447 11,200 -1,080 Descending New York Center
05:29PM 40.6539 -75.1342 109° East 381 438 10,100 -600 Descending New York Center
05:30PM 40.5906 -75.0425 132° Southeast 371 427 10,000 -60 Descending New York Center
05:31PM 40.5447 -74.9250 117° Southeast 371 427 10,000  Level New York Center
05:32PM 40.5094 -74.8056 111° Southeast 335 386 10,000  Level New York Center
05:33PM 40.4772 -74.7108 114° Southeast 314 361 10,000  Level New York Center
05:33PM 40.4500 -74.6167 111° Southeast 312 359 10,100  Climbing New York TRACON
05:34PM 40.4333 -74.5167 102° East 310 357 10,000 -900 Descending New York TRACON
05:35PM 40.4667 -74.4167 66° East 288 331 8,400 -1,500 Descending New York TRACON
05:36PM 40.4833 -74.3167 78° East 283 326 7,100 -660 Descending New York TRACON
05:37PM 40.5167 -74.2167 66° East 289 333 7,100 -660 Level New York TRACON
05:38PM 40.5333 -74.1167 78° East 278 320 5,800 -1,620 Descending New York TRACON
05:39PM 40.5833 -74.0500 45° Northeast 282 325 4,100 -900 Descending New York TRACON
05:40PM 40.6500 -74.0333 11° North 274 315 4,100 -180 Level New York TRACON
05:41PM 40.7333 -74.0167 North 272 313 3,800 -540 Descending New York TRACON
05:42PM 40.8000 -73.9833 21° North 275 316 3,100 -360 Descending New York TRACON
05:43PM 40.8667 -73.9333 30° Northeast 274 315 3,100  Level New York TRACON
05:44PM 40.9167 -73.9000 27° Northeast 203 234 3,100  Level New York TRACON
05:45PM 40.9333 -73.8500 66° East 209 241 3,100  Level New York TRACON
05:46PM 40.9167 -73.7833 108° East 187 215 3,100 -300 Level New York TRACON
05:47PM 40.8833 -73.7833 180° South 165 190 2,500 -780 Descending New York TRACON
05:48PM 40.8500 -73.8167 217° Southwest 147 169 1,600 -840 Descending New York TRACON
05:49PM 40.8167 -73.8500 217° Southwest 135 155 800 -780 Descending New York TRACON
05:51PM 40.7772 -73.8726 208° Southwest  Level Estimated
05:58PM 40.7772 -73.8726 208° Southwest  Level Estimated
05:59PM 40.7772 -73.8726 285° West  Level Estimated